Regional Weather Roundup
Issued by NWS

Home | Current Version | Previous Version | Graphics & Text | Print | Product List | Glossary Off
Versions: 1 2 3 4 5 6 7 8 9 10 11 12 13 14 15 16 17 18 19 20 21 22 23 24 25 26 27 28 29 30 31 32 33 34 35 36 37 38 39 40 41 42 43 44 45 46 47 48 49 50

000
ASUS43 KMKX 291321
RWRWI

WISCONSIN REGIONAL WEATHER ROUNDUP
NATIONAL WEATHER SERVICE MILWAUKEE/SULLIVAN WI
800 AM CDT FRI MAY 29 2015

NOTE: "FAIR" INDICATES FEW OR NO CLOUDS BELOW 12,000 FEET WITH NO
SIGNIFICANT WEATHER AND/OR OBSTRUCTIONS TO VISIBILITY.

WIZ001-002-006>008-014>016-023>028-291400-
NORTHWEST WISCONSIN

CITY           SKY/WX    TMP DP  RH WIND       PRES   REMARKS
SUPERIOR ARPT  CLOUDY    47  43  88 CALM      29.88R
ASHLAND        LGT RAIN  62  61  96 CALM      29.87F
HAYWARD        CLOUDY    62  59  90 S5        29.89S
SIREN          CLOUDY    64  61  91 S8        29.88S
CUMBERLAND     RAIN      59  59 100 S7        29.89S
RICE LAKE      LGT RAIN  62  59  90 CALM      29.91R
CHETEK         LGT RAIN  62  61  95 S6        29.90S
LADYSMITH      CLOUDY    64  59  84 S7        29.92F
EAU CLAIRE     CLOUDY    66  60  81 S10       29.90S
MENOMONIE      CLOUDY    65  62  89 S7        29.90S
NEW RICHMOND   MOSUNNY   63  62  98 S8        29.88F
OSCEOLA        PTSUNNY   65  65 100 S7        29.90F
$$

WIZ003>005-009-010-017-018-291400-
NORTH CENTRAL WISCONSIN

CITY           SKY/WX    TMP DP  RH WIND       PRES   REMARKS
MANITOWISH WTR CLOUDY    61  58  90 S8        29.91F
ARBOR VITAE    CLOUDY    63  58  84 S8        29.93F
WOODRUFF       CLOUDY    63  58  84 S8        29.93F
RHINELANDER    CLOUDY    62  56  80 S3        29.95F
EAGLE RIVER    DRIZZLE   61  55  80 S5        29.94F
LAND O LAKES   LGT RAIN  62  55  79 S6        29.94F
PHILLIPS       CLOUDY    64  58  82 S8        29.92S
TOMAHAWK       CLOUDY    63  58  86 CALM      29.94F
MEDFORD        PTSUNNY   63  60  90 S12       29.94S
MERRILL        CLOUDY    63  60  90 S5        29.95F
$$

WIZ029-030-035-036-043>047-291400-
CENTRAL WISCONSIN

CITY           SKY/WX    TMP DP  RH WIND       PRES   REMARKS
WAUSAU         CLOUDY    64  59  83 S5        29.95S
MOSINEE        MOSUNNY   63  61  94 S9        29.97F
MARSHFIELD     MOSUNNY   65  60  84 S12       29.94F
STEVENS POINT  CLOUDY    64  59  83 S8        29.96F
WAUPACA        CLOUDY    64  63  95 CALM      29.96F
WAUTOMA        CLOUDY    64  64 100 CALM      29.99S
WISC RAPIDS    CLOUDY    64  60  87 S7        29.96F
CAMP DOUGLAS   PTSUNNY   63  63 100 SE3       29.95S
$$

WIZ011>013-019>022-031-037>040-048>050-291400-
NORTHEAST WISCONSIN

CITY           SKY/WX    TMP DP  RH WIND       PRES   REMARKS
ANTIGO         CLOUDY    60  57  91 S6        29.97F
SHAWANO        CLOUDY    65  60  81 CALM      29.97F
OCONTO         CLOUDY    64  61  90 CALM      29.97S
STURGEON BAY   CLOUDY    59  54  82 SE6       30.02R
GREEN BAY      LGT RAIN  66  59  78 S5        29.98F
MANITOWOC      CLOUDY    60  54  80 S3        30.01S
APPLETON       LGT RAIN  64  59  82 S7        29.99S
CLINTONVILLE   CLOUDY    63  59  88 S5        29.97F
OSHKOSH        CLOUDY    64  59  83 S7        29.99S
$$

WIZ032>034-041-042-053>061-291400-
SOUTHWEST WISCONSIN

CITY           SKY/WX    TMP DP  RH WIND       PRES   REMARKS
LA CROSSE      PTSUNNY   69  62  78 S13       29.93R
SPARTA         PTSUNNY   66  61  81 CALM      29.95R
VIROQUA        PTSUNNY   64  64  97 S8        29.97R
BOSCOBEL       CLOUDY    67  63  87 SW5       29.97R
PRAIRIE DU CHI CLOUDY    66  62  87 E5        29.96R
PLATTEVILLE    CLOUDY    66  64  93 SE9       29.98S
$$

WIZ056-057-062-063-064-067-068-291400-
SOUTH CENTRAL WISCONSIN

CITY           SKY/WX    TMP DP  RH WIND       PRES   REMARKS
REEDSBURG      CLOUDY    65  63  93 S6        29.97S
BARABOO/DELLS  CLOUDY    64  62  91 S12       29.97S
LONE ROCK      CLOUDY    67  63  87 SE7       29.98S
MINERAL POINT  CLOUDY    68  64  88 S8        29.99S
MADISON        CLOUDY    66  62  87 SE5       30.00F
MIDDLETON      CLOUDY    66  65  96 SE6       30.00F
WATERTOWN      PTSUNNY  N/A N/A N/A CALM      30.01F
MONROE         CLOUDY    64  59  82 E3        30.01S
JANESVILLE     PTSUNNY   72  61  68 S6        30.01
$$

WIZ051-052-058>065-066-070>072-291400-
SOUTHEAST WISCONSIN

CITY           SKY/WX    TMP DP  RH WIND       PRES   REMARKS
MILWAUKEE      CLOUDY    68  58  70 S9        30.02R
WAUKESHA       MOSUNNY   64  57  77 SW8       30.03S
MILWAUKEE/TIMM MOSUNNY   66  55  68 CALM      30.03R
RACINE         CLOUDY    67  58  72 S8        30.04S
BURLINGTON     CLOUDY    64  59  83 CALM      30.02S
KENOSHA        CLOUDY    71  63  75 S6        30.02S
FOND DU LAC    LGT RAIN  66  61  84 S5        30.01R
SHEBOYGAN      CLOUDY    63  57  81 SW5       30.01S
WEST BEND      PTSUNNY   66  57  72 CALM      30.01S
JUNEAU         CLOUDY    63  59  86 S5        30.03R
$$

LSZ147-162-291400-
LAKE SUPERIOR

STATION/POSITION TIME  TEMP    WIND        PRES    WAVE
                       AIR SEA DIR/SP/G            HT/PER
                 (UTC) (F)     (DEG/KT/KT) (MB)    (FT/S)
W MID LAKE BUOY  1250   39 37   60/  2/  4   N/A     1
DEVILS ISLAND    1300   43      30/  3/  4   N/A
PORT WING        1240   41      20/  1/  3   N/A
SAXON HARBOR     1200   61      CALM  /  5   N/A
$$

LMZ867-665-643>646-291400-
LAKE MICHIGAN

STATION/POSITION TIME  TEMP    WIND        PRES    WAVE
                       AIR SEA DIR/SP/G            HT/PER
                 (UTC) (F)     (DEG/KT/KT) (MB)    (FT/S)
CHAMBERS ISLAND  1200   61     160/  7/ 12   N/A
N MID LAKE BUOY  1250   42 37  200/  4/  4   N/A     1
NORTHPORT PIER   1200   60     150/  9/ 14   N/A
SISTER BAY       1203   62     160/ 18/ 23   N/A
ALGOMA LAKESHORE 1223          200/  5/  6   N/A
KEWAUNEE LAKESHO 1200   51     170/  5/  8   N/A
SHEBOYGAN LAKESH 1300   51     170/  9/ 10   N/A
PORT WASHINGTON  1200   55      CALM  /  2   N/A
ATWATER BUOY     1300   53     170/  6/  8   N/A
MILWAUKEE LAKESH 1300   54     150/  2/  3   N/A
S MID LAKE BUOY  1250   47 38  150/ 12/ 12   N/A     1
KENOSHA   LAKESH 1300   56     160/  9/ 13   N/A
$$

TC  - TEMPERATURE IN CELSIUS
VSB - VISIBILITY IN STATUTE MILES
WCI - WIND CHILL INDEX
HX  - HEAT INDEX



USA.gov is the U.S. government's official web portal to all federal, state and local government web resources and services.